V91 EFTP-EFHK

Flight info

Callsign V91
Flight time 0h 34m
Altitude 3500
Route VIILA VALKEAKOSKI HAMEENLINNA HYVINKAA TURFI TC
Aircraft G115/L-SDGR/C

Departure

Time 2026-04-26 09:00
Airport Tampere-Pirkkala Airport (EFTP)

Arrival

Time 2026-04-26 09:34
Airport Helsinki Vantaa Airport (EFHK)
Time Latitude Longitude Altitude Speed Heading
2026-04-26 08:47 61.40908 23.62099 379 ft 0 kts 190°
2026-04-26 08:53 61.40897 23.62062 379 ft 4 kts 279°
2026-04-26 08:53 61.40894 23.61967 378 ft 9 kts 252°
2026-04-26 08:53 61.40864 23.61804 375 ft 14 kts 246°
2026-04-26 08:54 61.40820 23.61600 372 ft 17 kts 233°
2026-04-26 08:54 61.40732 23.61425 368 ft 13 kts 235°
2026-04-26 08:54 61.40710 23.61223 369 ft 14 kts 271°
2026-04-26 08:54 61.40721 23.61042 371 ft 14 kts 280°
2026-04-26 08:55 61.40707 23.60771 369 ft 20 kts 255°
2026-04-26 08:55 61.40719 23.60489 370 ft 16 kts 296°
2026-04-26 08:55 61.40777 23.60338 372 ft 14 kts 317°
2026-04-26 08:55 61.40858 23.60175 376 ft 16 kts 311°
2026-04-26 08:56 61.40923 23.59986 383 ft 17 kts 298°
2026-04-26 08:56 61.40971 23.59689 386 ft 26 kts 275°
2026-04-26 08:56 61.40975 23.59512 388 ft 13 kts 269°
2026-04-26 08:56 61.40975 23.59354 386 ft 10 kts 291°
2026-04-26 08:57 61.41017 23.59260 388 ft 8 kts 330°
2026-04-26 08:57 61.41049 23.59228 390 ft 1 kts 334°
2026-04-26 08:57 61.41050 23.59227 390 ft 3 kts 334°
2026-04-26 08:58 61.41128 23.59180 389 ft 6 kts 52°
2026-04-26 08:58 61.41142 23.59245 389 ft 5 kts 66°
2026-04-26 08:58 61.41191 23.59458 386 ft 41 kts 65°
2026-04-26 08:58 61.41370 23.60232 445 ft 68 kts 62°
2026-04-26 08:59 61.41592 23.61240 548 ft 85 kts 60°
2026-04-26 08:59 61.41867 23.62410 648 ft 96 kts 58°
2026-04-26 08:59 61.42108 23.63698 903 ft 93 kts 62°
2026-04-26 08:59 61.42087 23.65237 960 ft 124 kts 101°
2026-04-26 09:00 61.41528 23.66760 978 ft 138 kts 127°
2026-04-26 09:00 61.40883 23.68196 1167 ft 135 kts 123°
2026-04-26 09:00 61.40253 23.69732 1155 ft 143 kts 124°
2026-04-26 09:00 61.39565 23.71277 1194 ft 149 kts 131°
2026-04-26 09:01 61.38682 23.72580 1128 ft 158 kts 142°
2026-04-26 09:01 61.37727 23.73646 1222 ft 155 kts 156°
2026-04-26 09:01 61.36712 23.74388 1242 ft 156 kts 159°
2026-04-26 09:01 61.35689 23.75176 1242 ft 160 kts 157°
2026-04-26 09:02 61.34641 23.76012 1263 ft 162 kts 157°
2026-04-26 09:02 61.33566 23.76769 1294 ft 159 kts 159°
2026-04-26 09:02 61.32557 23.77555 1416 ft 156 kts 159°
2026-04-26 09:02 61.31556 23.78257 1470 ft 156 kts 160°
2026-04-26 09:03 61.30497 23.78929 1466 ft 160 kts 163°
2026-04-26 09:03 61.29376 23.79547 1289 ft 168 kts 161°
2026-04-26 09:03 61.28324 23.80185 1495 ft 155 kts 165°
2026-04-26 09:03 61.27287 23.80878 1550 ft 157 kts 156°
2026-04-26 09:04 61.26250 23.81636 1620 ft 158 kts 160°
2026-04-26 09:04 61.25203 23.82331 1674 ft 159 kts 160°
2026-04-26 09:04 61.24151 23.83040 1725 ft 157 kts 160°
2026-04-26 09:04 61.23100 23.83612 1820 ft 156 kts 166°
2026-04-26 09:05 61.22031 23.84145 1835 ft 160 kts 164°
2026-04-26 09:05 61.20946 23.84753 1828 ft 163 kts 160°
2026-04-26 09:05 61.19906 23.85719 1764 ft 163 kts 141°
2026-04-26 09:05 61.18991 23.87199 1597 ft 166 kts 129°
2026-04-26 09:06 61.18134 23.88717 1718 ft 153 kts 135°
2026-04-26 09:06 61.17376 23.90213 1704 ft 155 kts 122°
2026-04-26 09:06 61.16730 23.92020 1580 ft 156 kts 109°
2026-04-26 09:06 61.16230 23.94016 1509 ft 154 kts 103°
2026-04-26 09:07 61.15771 23.96032 1489 ft 153 kts 104°
2026-04-26 09:07 61.15285 23.98045 1354 ft 156 kts 104°
2026-04-26 09:07 61.14846 24.00041 1300 ft 151 kts 99°
2026-04-26 09:07 61.14494 24.02068 1206 ft 151 kts 98°
2026-04-26 09:08 61.14171 24.04135 1098 ft 149 kts 95°
2026-04-26 09:08 61.13924 24.06177 1088 ft 143 kts 94°
2026-04-26 09:08 61.13613 24.08101 1167 ft 140 kts 98°
2026-04-26 09:08 61.13204 24.09889 1295 ft 141 kts 113°
2026-04-26 09:09 61.12540 24.11512 1238 ft 156 kts 129°
2026-04-26 09:09 61.11681 24.12970 1190 ft 165 kts 140°
2026-04-26 09:09 61.10744 24.14220 1295 ft 153 kts 138°
2026-04-26 09:09 61.09985 24.15625 1461 ft 143 kts 124°
2026-04-26 09:10 61.09325 24.17116 1623 ft 137 kts 118°
2026-04-26 09:10 61.08797 24.18711 1774 ft 132 kts 109°
2026-04-26 09:10 61.08401 24.20371 1900 ft 128 kts 95°
2026-04-26 09:10 61.08136 24.22113 1985 ft 130 kts 91°
2026-04-26 09:11 61.07844 24.23992 1929 ft 143 kts 92°
2026-04-26 09:11 61.07557 24.25954 1936 ft 142 kts 91°
2026-04-26 09:11 61.07292 24.27920 1936 ft 144 kts 91°
2026-04-26 09:11 61.06995 24.29895 1943 ft 143 kts 94°
2026-04-26 09:12 61.06683 24.31832 1993 ft 145 kts 99°
2026-04-26 09:12 61.06092 24.33624 1996 ft 157 kts 122°
2026-04-26 09:12 61.05309 24.35247 2007 ft 162 kts 128°
2026-04-26 09:12 61.04437 24.36793 1946 ft 169 kts 133°
2026-04-26 09:13 61.03525 24.38290 1940 ft 167 kts 133°
2026-04-26 09:13 61.02627 24.39825 1846 ft 171 kts 132°
2026-04-26 09:13 61.01728 24.41337 1948 ft 161 kts 132°
2026-04-26 09:13 61.00936 24.42902 1955 ft 159 kts 121°
2026-04-26 09:14 61.00155 24.44611 1814 ft 169 kts 134°
2026-04-26 09:14 60.99116 24.45825 1731 ft 175 kts 149°
2026-04-26 09:14 60.98003 24.46808 1688 ft 174 kts 157°
2026-04-26 09:14 60.96889 24.47731 1715 ft 167 kts 150°
2026-04-26 09:15 60.95864 24.48872 1681 ft 170 kts 147°
2026-04-26 09:15 60.94804 24.49933 1732 ft 166 kts 153°
2026-04-26 09:15 60.93738 24.50835 1652 ft 168 kts 151°
2026-04-26 09:15 60.92680 24.52021 1483 ft 168 kts 140°
2026-04-26 09:16 60.91714 24.53330 1448 ft 167 kts 142°
2026-04-26 09:16 60.90698 24.54455 1477 ft 165 kts 147°
2026-04-26 09:16 60.89713 24.55536 1591 ft 157 kts 149°
2026-04-26 09:16 60.88707 24.56484 1651 ft 159 kts 156°
2026-04-26 09:17 60.87658 24.57250 1674 ft 162 kts 158°
2026-04-26 09:17 60.86969 24.57842 1691 ft 161 kts 152°
2026-04-26 09:17 60.85708 24.59441 1761 ft 159 kts 135°
2026-04-26 09:17 60.84856 24.60874 1820 ft 156 kts 127°
2026-04-26 09:18 60.84140 24.62507 1864 ft 154 kts 122°
2026-04-26 09:18 60.83413 24.64109 1943 ft 154 kts 125°
2026-04-26 09:18 60.82590 24.65594 1934 ft 161 kts 134°
2026-04-26 09:18 60.81686 24.66918 1951 ft 165 kts 141°
2026-04-26 09:19 60.80682 24.68141 1853 ft 170 kts 149°
2026-04-26 09:19 60.79610 24.69163 1919 ft 171 kts 152°
2026-04-26 09:19 60.78511 24.70125 1887 ft 173 kts 155°
2026-04-26 09:19 60.77401 24.71106 1834 ft 174 kts 150°
2026-04-26 09:20 60.76307 24.72152 1858 ft 173 kts 152°
2026-04-26 09:20 60.75176 24.72945 1893 ft 172 kts 168°
2026-04-26 09:20 60.73969 24.73215 1838 ft 174 kts 177°
2026-04-26 09:20 60.72798 24.73446 1910 ft 169 kts 172°
2026-04-26 09:21 60.71628 24.73773 1903 ft 170 kts 174°
2026-04-26 09:21 60.70449 24.74152 1879 ft 171 kts 167°
2026-04-26 09:21 60.69310 24.74783 1912 ft 169 kts 161°
2026-04-26 09:21 60.68193 24.75580 1924 ft 169 kts 153°
2026-04-26 09:22 60.67178 24.76670 1938 ft 168 kts 141°
2026-04-26 09:22 60.66260 24.78093 1951 ft 165 kts 132°
2026-04-26 09:22 60.65302 24.79528 1794 ft 176 kts 144°
2026-04-26 09:22 60.64190 24.80695 1542 ft 185 kts 154°
2026-04-26 09:23 60.63374 24.81155 1495 ft 181 kts 171°
2026-04-26 09:23 60.62154 24.81266 1460 ft 177 kts 190°
2026-04-26 09:23 60.60936 24.80865 1369 ft 174 kts 194°
2026-04-26 09:23 60.59745 24.80496 1300 ft 173 kts 188°
2026-04-26 09:24 60.58550 24.80523 1339 ft 170 kts 178°
2026-04-26 09:24 60.57426 24.81089 1376 ft 166 kts 154°
2026-04-26 09:24 60.56349 24.82028 1355 ft 165 kts 150°
2026-04-26 09:24 60.55353 24.83232 1299 ft 169 kts 156°
2026-04-26 09:25 60.54221 24.83877 1228 ft 170 kts 167°
2026-04-26 09:25 60.53077 24.84319 1225 ft 168 kts 172°
2026-04-26 09:25 60.51935 24.84671 1309 ft 163 kts 173°
2026-04-26 09:25 60.50827 24.85041 1390 ft 160 kts 173°
2026-04-26 09:26 60.49718 24.85268 1476 ft 157 kts 175°
2026-04-26 09:26 60.48813 24.85843 1566 ft 153 kts 146°
2026-04-26 09:26 60.48075 24.87142 1552 ft 145 kts 109°
2026-04-26 09:26 60.47774 24.89038 1465 ft 137 kts 82°
2026-04-26 09:27 60.47668 24.90999 1359 ft 141 kts 79°
2026-04-26 09:27 60.47678 24.92965 1278 ft 139 kts 70°
2026-04-26 09:27 60.47705 24.94944 1191 ft 143 kts 76°
2026-04-26 09:27 60.47591 24.96959 1174 ft 149 kts 94°
2026-04-26 09:28 60.47111 24.98940 1016 ft 158 kts 112°
2026-04-26 09:28 60.46443 25.00805 839 ft 164 kts 129°
2026-04-26 09:28 60.45502 25.02009 817 ft 159 kts 169°
2026-04-26 09:28 60.44455 25.02036 866 ft 148 kts 192°
2026-04-26 09:29 60.43413 25.01932 897 ft 153 kts 188°
2026-04-26 09:29 60.42353 25.01864 953 ft 154 kts 189°
2026-04-26 09:29 60.41261 25.01704 816 ft 157 kts 191°
2026-04-26 09:29 60.40214 25.01458 859 ft 147 kts 195°
2026-04-26 09:30 60.39202 25.01182 871 ft 146 kts 193°
2026-04-26 09:30 60.38214 25.00892 924 ft 138 kts 197°
2026-04-26 09:30 60.37289 25.00517 1004 ft 136 kts 198°
2026-04-26 09:30 60.36335 25.00208 962 ft 141 kts 194°
2026-04-26 09:31 60.35372 24.99856 969 ft 141 kts 198°
2026-04-26 09:31 60.34354 24.99661 863 ft 151 kts 182°
2026-04-26 09:31 60.33360 25.00308 793 ft 152 kts 153°
2026-04-26 09:31 60.32427 25.01214 757 ft 150 kts 156°
2026-04-26 09:32 60.31489 25.02053 818 ft 143 kts 154°
2026-04-26 09:32 60.30599 25.03014 721 ft 143 kts 154°
2026-04-26 09:32 60.29692 25.03119 757 ft 125 kts 213°
2026-04-26 09:32 60.29122 25.02145 758 ft 93 kts 272°
2026-04-26 09:33 60.29185 25.01059 638 ft 71 kts 305°
2026-04-26 09:33 60.29450 25.00282 545 ft 64 kts 323°
2026-04-26 09:33 60.29807 24.99767 468 ft 63 kts 335°
2026-04-26 09:33 60.30184 24.99356 384 ft 60 kts 331°
2026-04-26 09:34 60.30534 24.99009 259 ft 58 kts 336°
2026-04-26 09:34 60.30939 24.98591 163 ft 72 kts 333°
2026-04-26 09:34 60.31311 24.98207 154 ft 45 kts 333°
2026-04-26 09:34 60.31616 24.97897 196 ft 55 kts 333°
2026-04-26 09:35 60.31976 24.97550 370 ft 60 kts 336°
2026-04-26 09:35 60.32354 24.97150 596 ft 59 kts 332°
2026-04-26 09:35 60.32730 24.96739 753 ft 66 kts 347°
2026-04-26 09:35 60.33128 24.97475 917 ft 94 kts 46°
2026-04-26 09:36 60.33438 24.98759 968 ft 106 kts 47°
2026-04-26 09:36 60.33766 25.00135 1038 ft 119 kts 61°
2026-04-26 09:36 60.33475 25.01853 917 ft 150 kts 132°
2026-04-26 09:36 60.32560 25.02914 910 ft 150 kts 152°
2026-04-26 09:37 60.31855 25.04222 888 ft 128 kts 87°
2026-04-26 09:37 60.32118 25.05518 903 ft 86 kts 13°
2026-04-26 09:37 60.32592 25.05167 864 ft 85 kts 308°
2026-04-26 09:37 60.32538 25.03806 819 ft 113 kts 259°
2026-04-26 09:38 60.31827 25.02842 861 ft 141 kts 201°
2026-04-26 09:38 60.30887 25.03357 937 ft 141 kts 131°
2026-04-26 09:38 60.30549 25.04863 1052 ft 106 kts 67°
2026-04-26 09:38 60.30872 25.05903 1058 ft 78 kts
2026-04-26 09:39 60.31284 25.05419 1133 ft 83 kts 306°
2026-04-26 09:39 60.31201 25.04029 1013 ft 119 kts 255°
2026-04-26 09:39 60.30548 25.02783 852 ft 132 kts 229°
2026-04-26 09:39 60.29857 25.01676 741 ft 115 kts 240°
2026-04-26 09:40 60.29238 25.00799 638 ft 120 kts 191°
2026-04-26 09:40 60.28506 25.01574 698 ft 121 kts 109°
2026-04-26 09:40 60.28467 25.02958 797 ft 94 kts 43°
2026-04-26 09:40 60.28867 25.04064 760 ft 101 kts 34°
2026-04-26 09:41 60.29336 25.05144 703 ft 99 kts 24°
2026-04-26 09:41 60.29890 25.05729 701 ft 90 kts
2026-04-26 09:41 60.30496 25.05976 714 ft 90 kts 358°
2026-04-26 09:41 60.31017 25.05707 800 ft 80 kts 306°
2026-04-26 09:42 60.30782 25.04540 858 ft 113 kts 229°
2026-04-26 09:42 60.29991 25.04348 874 ft 128 kts 154°
2026-04-26 09:42 60.29159 25.05124 883 ft 132 kts 154°
2026-04-26 09:42 60.28281 25.05576 886 ft 131 kts 191°
2026-04-26 09:43 60.27569 25.04788 874 ft 109 kts 251°
2026-04-26 09:43 60.27454 25.03513 928 ft 84 kts 296°
2026-04-26 09:43 60.27749 25.02489 801 ft 87 kts 318°
2026-04-26 09:43 60.28180 25.01686 825 ft 83 kts 330°
2026-04-26 09:44 60.28651 25.01021 778 ft 88 kts 332°
2026-04-26 09:44 60.29204 25.00362 656 ft 96 kts 334°
2026-04-26 09:44 60.29752 24.99817 489 ft 78 kts 329°
2026-04-26 09:44 60.30201 24.99361 361 ft 71 kts 333°
2026-04-26 09:45 60.30616 24.98922 238 ft 65 kts 332°
2026-04-26 09:45 60.30955 24.98573 151 ft 43 kts 333°
2026-04-26 09:45 60.31226 24.98300 183 ft 50 kts 332°
2026-04-26 09:45 60.31549 24.97968 300 ft 58 kts 333°
2026-04-26 09:46 60.31927 24.97568 473 ft 63 kts 331°
2026-04-26 09:46 60.32328 24.97165 682 ft 65 kts 335°
2026-04-26 09:46 60.32764 24.96886 879 ft 69 kts
2026-04-26 09:46 60.33216 24.97468 1040 ft 87 kts 28°
2026-04-26 09:47 60.33610 24.98549 1083 ft 105 kts 47°
2026-04-26 09:47 60.33925 24.99981 1040 ft 124 kts 64°
2026-04-26 09:47 60.33632 25.01735 1064 ft 149 kts 124°
2026-04-26 09:47 60.32750 25.02974 956 ft 157 kts 150°
2026-04-26 09:48 60.31900 25.04080 1085 ft 131 kts 111°
2026-04-26 09:48 60.31844 25.05525 1028 ft 88 kts 40°
2026-04-26 09:48 60.32306 25.05788 918 ft 71 kts 343°
2026-04-26 09:48 60.32752 25.05286 874 ft 76 kts 329°
2026-04-26 09:49 60.32944 25.04319 941 ft 99 kts 270°
2026-04-26 09:49 60.32245 25.03429 845 ft 144 kts 188°
2026-04-26 09:49 60.31415 25.04315 914 ft 129 kts 110°
2026-04-26 09:49 60.31413 25.05719 900 ft 84 kts 26°
2026-04-26 09:50 60.31864 25.06066 968 ft 68 kts 349°
2026-04-26 09:50 60.32304 25.05695 958 ft 71 kts 333°
2026-04-26 09:50 60.32684 25.05069 993 ft 72 kts 324°
2026-04-26 09:50 60.33024 25.04290 1011 ft 77 kts 314°
2026-04-26 09:51 60.33458 25.03943 983 ft 79 kts 11°
2026-04-26 09:51 60.33722 25.05096 851 ft 127 kts 86°
2026-04-26 09:51 60.33331 25.06755 828 ft 130 kts 105°
2026-04-26 09:51 60.33018 25.08446 713 ft 130 kts 96°
2026-04-26 09:52 60.32723 25.10108 759 ft 120 kts 95°
2026-04-26 09:52 60.32652 25.12803 899 ft 67 kts 18°
2026-04-26 09:52 60.33122 25.13067 861 ft 74 kts 352°
2026-04-26 09:53 60.33666 25.12970 842 ft 84 kts 351°
2026-04-26 09:53 60.34222 25.12833 960 ft 78 kts 349°
2026-04-26 09:53 60.34317 25.11776 871 ft 119 kts 252°
2026-04-26 09:53 60.33487 25.11170 914 ft 142 kts 181°
2026-04-26 09:54 60.32495 25.11314 890 ft 144 kts 177°
2026-04-26 09:54 60.31523 25.11548 990 ft 140 kts 173°
2026-04-26 09:54 60.30616 25.11442 1130 ft 117 kts 231°
2026-04-26 09:54 60.30448 25.10296 1029 ft 78 kts 317°
2026-04-26 09:55 60.30945 25.10174 1037 ft 88 kts 19°
2026-04-26 09:55 60.31471 25.10883 910 ft 95 kts 20°
2026-04-26 09:55 60.32010 25.11497 1038 ft 81 kts
2026-04-26 09:55 60.32559 25.11725 1044 ft 81 kts 359°
2026-04-26 09:56 60.33135 25.11785 998 ft 87 kts 355°
2026-04-26 09:56 60.33736 25.11818 1031 ft 85 kts 356°
2026-04-26 09:56 60.34316 25.11830 1099 ft 82 kts 357°
2026-04-26 09:56 60.34877 25.11903 1129 ft 79 kts 343°
2026-04-26 09:57 60.35006 25.10754 1078 ft 121 kts 258°
2026-04-26 09:57 60.34206 25.09790 1019 ft 153 kts 195°
2026-04-26 09:57 60.33132 25.09585 974 ft 155 kts 190°
2026-04-26 09:57 60.32067 25.09547 1024 ft 153 kts 184°
2026-04-26 09:58 60.31007 25.09648 1040 ft 152 kts 182°
2026-04-26 09:58 60.29948 25.09622 1043 ft 150 kts 199°
2026-04-26 09:58 60.29127 25.08685 1085 ft 127 kts 242°
2026-04-26 09:58 60.28486 25.07444 1011 ft 134 kts 240°
2026-04-26 09:59 60.27842 25.06120 988 ft 133 kts 239°
2026-04-26 09:59 60.27382 25.05263 982 ft 137 kts 225°
2026-04-26 09:59 60.26119 25.05390 955 ft 151 kts 131°
2026-04-26 09:59 60.25907 25.07077 930 ft 109 kts 45°
2026-04-26 10:00 60.26434 25.07798 976 ft 85 kts
2026-04-26 10:00 60.26924 25.07357 1005 ft 87 kts 314°
2026-04-26 10:00 60.27031 25.06092 985 ft 111 kts 272°
2026-04-26 10:00 60.26822 25.04521 878 ft 120 kts 265°
2026-04-26 10:01 60.26805 25.03055 761 ft 94 kts 315°
2026-04-26 10:01 60.27291 25.02398 701 ft 79 kts 332°
2026-04-26 10:01 60.27737 25.01885 762 ft 67 kts 334°
2026-04-26 10:01 60.28138 25.01463 813 ft 66 kts 333°
2026-04-26 10:02 60.28552 25.01008 761 ft 71 kts 336°
2026-04-26 10:02 60.29016 25.00550 678 ft 76 kts 330°
2026-04-26 10:02 60.29458 25.00101 605 ft 65 kts 335°
2026-04-26 10:02 60.29807 24.99760 440 ft 47 kts 334°
2026-04-26 10:03 60.30075 24.99460 382 ft 43 kts 335°
2026-04-26 10:03 60.30352 24.99180 277 ft 47 kts 330°
2026-04-26 10:03 60.30653 24.98885 229 ft 51 kts 332°
2026-04-26 10:03 60.30988 24.98539 166 ft 57 kts 333°
2026-04-26 10:04 60.31263 24.98256 154 ft 42 kts 334°
2026-04-26 10:04 60.31593 24.97918 199 ft 56 kts 332°
2026-04-26 10:04 60.31917 24.97570 351 ft 47 kts 333°
2026-04-26 10:04 60.32191 24.97300 484 ft 42 kts 335°
2026-04-26 10:05 60.32460 24.97037 563 ft 46 kts 334°
2026-04-26 10:05 60.32770 24.96883 658 ft 53 kts
2026-04-26 10:05 60.33110 24.97672 721 ft 92 kts 38°
2026-04-26 10:05 60.33465 24.98819 871 ft 99 kts 45°
2026-04-26 10:06 60.33407 25.00422 963 ft 137 kts 108°
2026-04-26 10:06 60.32643 25.01693 933 ft 146 kts 144°
2026-04-26 10:06 60.31828 25.02714 1068 ft 133 kts 145°
2026-04-26 10:06 60.31047 25.03653 1090 ft 131 kts 143°
2026-04-26 10:07 60.30282 25.04601 1165 ft 128 kts 142°
2026-04-26 10:07 60.29504 25.05551 1069 ft 139 kts 142°
2026-04-26 10:07 60.28648 25.06504 996 ft 136 kts 160°
2026-04-26 10:07 60.27820 25.06168 938 ft 118 kts 237°
2026-04-26 10:08 60.27310 25.05004 997 ft 108 kts 250°
2026-04-26 10:08 60.26919 25.03826 1075 ft 100 kts 262°
2026-04-26 10:08 60.26960 25.02697 1023 ft 78 kts 323°
2026-04-26 10:08 60.27450 25.02161 866 ft 82 kts 336°
2026-04-26 10:09 60.27954 25.01642 792 ft 79 kts 333°
2026-04-26 10:09 60.28271 25.01318 784 ft 78 kts 333°
2026-04-26 10:09 60.28920 25.00667 752 ft 80 kts 333°
2026-04-26 10:09 60.29416 25.00155 603 ft 75 kts 334°
2026-04-26 10:10 60.29835 24.99722 457 ft 65 kts 329°
2026-04-26 10:10 60.30210 24.99347 355 ft 52 kts 336°
2026-04-26 10:10 60.30409 24.99129 276 ft 47 kts 331°
2026-04-26 10:10 60.30715 24.98822 184 ft 50 kts 333°
2026-04-26 10:11 60.30990 24.98519 149 ft 21 kts 306°
2026-04-26 10:11 60.30976 24.98316 151 ft 13 kts 241°
2026-04-26 10:11 60.30965 24.98275 152 ft 1 kts 241°
2026-04-26 10:11 60.30936 24.98167 154 ft 7 kts 241°
2026-04-26 10:12 60.30918 24.98104 154 ft 8 kts 226°
2026-04-26 10:12 60.30858 24.98118 155 ft 5 kts 195°
2026-04-26 10:12 60.30849 24.98100 155 ft 2 kts 243°
2026-04-26 10:12 60.30848 24.98096 155 ft 0 kts 243°